N8QF-1 Weather Reports


time (UTC)temp
C
wind
direction
speed
KPH
gust
KPH
rain 1hr
cm
rain 24hr
cm
rain mn
cm
humidity
%
barometer
mb
20260509024545 13 338 4.8 9.7 0.00 0.00 0.00 83 1010.6
20260509024045 13 356 6.4 9.7 0.00 0.00 0.00 82 1010.7
20260509023545 14 339 3.2 6.4 0.00 0.00 0.00 81 1010.8
20260509023043 14 302 3.2 8.0 0.00 0.00 0.00 80 1010.9
20260509022542 14 278 4.8 9.7 0.00 0.00 0.00 80 1011.0
20260509022041 14 291 4.8 6.4 0.00 0.00 0.00 79 1010.8
20260509021541 14 294 0.0 0.0 0.00 0.00 0.00 77 1010.7
20260509021040 14 294 0.0 0.0 0.00 0.00 0.00 78 1010.6
20260509020540 14 294 0.0 0.0 0.00 0.00 0.00 78 1010.5
20260509020039 14 294 0.0 0.0 0.00 0.00 0.00 77 1010.4
20260509015539 15 294 0.0 0.0 0.00 0.00 0.00 78 1010.4
20260509015038 15 294 0.0 0.0 0.00 0.00 0.00 74 1010.4
20260509014538 15 294 0.0 0.0 0.00 0.00 0.00 73 1010.3
20260509014037 15 294 0.0 6.4 0.00 0.00 0.00 72 1010.3
20260509013537 15 294 0.0 11.3 0.00 0.00 0.00 72 1010.4
20260509013036 15 352 8.0 9.7 0.00 0.00 0.00 73 1010.4
20260509012536 15 350 1.6 6.4 0.00 0.00 0.00 72 1010.3
20260509012035 15 262 1.6 9.7 0.00 0.00 0.00 71 1010.3
20260509011535 15 21 6.4 12.9 0.00 0.00 0.00 70 1010.2
20260509011034 15 17 9.7 14.5 0.00 0.00 0.00 70 1010.1
20260509005533 16 309 8.0 11.3 0.00 0.00 0.00 69 1010.2
20260509004530 16 347 6.4 14.5 0.00 0.00 0.00 69 1010.0
20260509004029 16 311 9.7 0.0 0.00 0.00 0.00 69 1009.9
20260509003528 15 329 0.0 0.0 0.00 0.00 0.00 75 1009.6
20260509003028 16 329 0.0 0.0 0.00 0.00 0.00 72 1009.7
20260509002527 16 329 0.0 0.0 0.00 0.00 0.00 73 1009.7
20260509002027 16 329 0.0 0.0 0.00 0.00 0.00 69 1009.7
20260509001526 16 329 0.0 0.0 0.00 0.00 0.00 71 1009.6
20260509001026 16 329 0.0 0.0 0.00 0.00 0.00 70 1009.6
20260509000525 16 329 0.0 0.0 0.00 0.00 0.00 71 1009.7
20260509000025 16 329 0.0 0.0 0.00 0.00 0.00 71 1009.7
20260508235524 16 329 0.0 0.0 0.00 0.00 0.00 70 1009.6
20260508235024 16 329 0.0 0.0 0.00 0.00 0.00 68 1009.6
20260508234022 16 329 0.0 0.0 0.00 0.00 0.00 69 1009.5
20260508233521 16 329 0.0 0.0 0.00 0.00 0.00 70 1009.6
20260508232520 17 329 0.0 0.0 0.00 0.00 0.00 65 1009.7
20260508232020 17 329 0.0 0.0 0.00 0.00 0.00 61 1009.7
20260508231519 18 329 0.0 0.0 0.00 0.00 0.00 61 1009.7
20260508230018 18 308 4.8 0.0 0.00 0.00 0.00 51 1009.5
20260508225517 18 318 0.0 1.6 0.00 0.00 0.00 50 1009.5
20260508225016 18 318 0.0 4.8 0.00 0.00 0.00 51 1009.5
20260508224516 18 318 1.6 3.2 0.00 0.00 0.00 50 1009.2
20260508224015 18 318 0.0 4.8 0.00 0.00 0.00 48 1009.1
20260508223515 18 315 0.0 0.0 0.00 0.00 0.00 47 1009.1
20260508223014 18 259 0.0 0.0 0.00 0.00 0.00 45 1009.2
20260508222514 19 259 0.0 3.2 0.00 0.00 0.00 44 1009.2
20260508221512 19 284 0.0 11.3 0.00 0.00 0.00 41 1009.3
20260508221011 19 266 6.4 8.0 0.00 0.00 0.00 40 1009.2
20260508220511 19 311 0.0 8.0 0.00 0.00 0.00 41 1009.3
20260508220010 19 212 1.6 11.3 0.00 0.00 0.00 40 1009.3
20260508215510 19 210 0.0 8.0 0.00 0.00 0.00 40 1009.3
20260508215009 19 225 6.4 8.0 0.00 0.00 0.00 40 1009.3
20260508214509 20 263 3.2 11.3 0.00 0.00 0.00 39 1009.2
20260508214008 19 211 6.4 11.3 0.00 0.00 0.00 39 1009.3
20260508213508 20 240 1.6 17.7 0.00 0.00 0.00 39 1009.2
20260508213007 19 242 4.8 16.1 0.00 0.00 0.00 38 1009.1
20260508212006 20 225 0.0 17.7 0.00 0.00 0.00 39 1009.5
20260508211505 19 203 9.7 11.3 0.00 0.00 0.00 37 1009.6
20260508211005 20 229 6.4 17.7 0.00 0.00 0.00 38 1009.5
20260508210504 20 229 8.0 16.1 0.00 0.00 0.00 37 1009.6
20260508210003 20 240 6.4 20.9 0.00 0.00 0.00 38 1009.6
20260508205002 19 256 16.1 22.5 0.00 0.00 0.00 37 1009.9
20260508204501 20 200 11.3 32.2 0.00 0.00 0.00 38 1010.0
20260508203500 20 256 9.7 24.1 0.00 0.00 0.00 39 1010.1
20260508202459 20 243 11.3 30.6 0.00 0.00 0.00 38 1010.3
20260508201959 19 246 14.5 24.1 0.00 0.00 0.00 37 1010.5
20260508201458 19 242 16.1 24.1 0.00 0.00 0.00 37 1010.4
20260508200958 19 238 16.1 20.9 0.00 0.00 0.00 37 1010.4
20260508200457 20 203 14.5 20.9 0.00 0.00 0.00 37 1010.4
20260508195957 19 256 8.0 27.4 0.00 0.00 0.00 37 1010.5
20260508195456 19 225 16.1 24.1 0.00 0.00 0.00 37 1010.5
20260508194956 19 225 12.9 25.7 0.00 0.00 0.00 37 1010.7
20260508194455 19 221 14.5 30.6 0.00 0.00 0.00 36 1010.7
20260508193955 20 232 14.5 25.7 0.00 0.00 0.00 36 1010.6
20260508193454 20 246 17.7 17.7 0.00 0.00 0.00 36 1010.6
20260508192953 20 236 11.3 25.7 0.00 0.00 0.00 36 1010.7
20260508192453 20 255 12.9 24.1 0.00 0.00 0.00 37 1010.7
20260508191952 20 274 16.1 27.4 0.00 0.00 0.00 36 1010.7
20260508191452 20 245 9.7 38.6 0.00 0.00 0.00 36 1010.8
20260508190951 20 208 22.5 29.0 0.00 0.00 0.00 36 1011.0
20260508185950 20 212 14.5 33.8 0.00 0.00 0.00 37 1011.0
20260508185450 20 257 14.5 22.5 0.00 0.00 0.00 37 1011.1
20260508184949 20 245 12.9 27.4 0.00 0.00 0.00 39 1011.3
20260508184448 20 228 16.1 29.0 0.00 0.00 0.00 38 1011.3
20260508183947 20 229 16.1 29.0 0.00 0.00 0.00 40 1011.3
20260508183447 20 256 12.9 22.5 0.00 0.00 0.00 40 1011.4
20260508182946 20 229 12.9 29.0 0.00 0.00 0.00 38 1011.4
20260508182445 20 190 11.3 25.7 0.00 0.00 0.00 41 1011.5
20260508181944 20 250 14.5 32.2 0.00 0.00 0.00 39 1011.7
20260508180443 19 255 8.0 29.0 0.00 0.00 0.00 40 1011.8
20260508175439 18 252 17.7 24.1 0.00 0.00 0.00 39 1012.1
20260508174939 19 232 16.1 20.9 0.00 0.00 0.00 40 1012.2
20260508174438 19 252 11.3 30.6 0.00 0.00 0.00 41 1012.1
20260508173938 18 253 16.1 20.9 0.00 0.00 0.00 40 1012.1
20260508173437 18 198 14.5 25.7 0.00 0.00 0.00 41 1012.2
20260508172937 18 239 14.5 30.6 0.00 0.00 0.00 40 1012.4
20260508172436 18 225 22.5 29.0 0.00 0.00 0.00 41 1012.6
20260508171936 18 243 9.7 24.1 0.00 0.00 0.00 41 1012.7
20260508171435 18 194 8.0 29.0 0.00 0.00 0.00 40 1012.7
20260508170935 18 219 17.7 24.1 0.00 0.00 0.00 41 1012.8
20260508170434 18 221 16.1 45.1 0.00 0.00 0.00 40 1012.8
20260508165934 18 236 14.5 27.4 0.00 0.00 0.00 40 1012.8
20260508164933 20 218 12.9 24.1 0.00 0.00 0.00 40 1013.1
20260508163932 18 186 14.5 24.1 0.00 0.00 0.00 40 1013.3
20260508163431 19 219 14.5 35.4 0.00 0.00 0.00 42 1013.2
20260508162430 18 203 19.3 35.4 0.00 0.00 0.00 41 1013.5
20260508161930 18 253 17.7 29.0 0.00 0.00 0.00 41 1013.4
20260508161429 18 218 17.7 29.0 0.00 0.00 0.00 44 1013.4
20260508160427 18 240 16.1 24.1 0.00 0.00 0.00 44 1013.5
20260508155926 17 224 16.1 37.0 0.00 0.00 0.00 44 1013.6
20260508155425 17 233 17.7 27.4 0.00 0.00 0.00 43 1013.6
20260508154924 17 215 17.7 35.4 0.00 0.00 0.00 45 1013.7
20260508154424 17 217 17.7 32.2 0.00 0.00 0.00 44 1013.7
20260508153924 17 256 19.3 30.6 0.00 0.00 0.00 45 1013.8
20260508153423 17 235 12.9 27.4 0.00 0.00 0.00 46 1013.8
20260508152922 17 211 17.7 29.0 0.00 0.00 0.00 46 1013.8
20260508152422 17 195 16.1 25.7 0.00 0.00 0.00 45 1013.8
20260508151921 17 246 14.5 25.7 0.00 0.00 0.00 46 1014.0
20260508151421 16 218 14.5 25.7 0.00 0.00 0.00 48 1014.0
20260508150920 16 233 11.3 25.7 0.00 0.00 0.00 48 1014.1
20260508150420 16 217 16.1 27.4 0.00 0.00 0.00 47 1014.2
20260508145919 16 235 19.3 29.0 0.00 0.00 0.00 47 1014.1
20260508145419 16 276 19.3 29.0 0.00 0.00 0.00 49 1014.2
20260508144918 16 242 14.5 27.4 0.00 0.00 0.00 48 1014.2
20260508144418 15 243 12.9 19.3 0.00 0.00 0.00 48 1014.2
20260508143917 15 229 12.9 20.9 0.00 0.00 0.00 50 1014.3
20260508142916 15 226 19.3 25.7 0.00 0.00 0.00 50 1014.4
20260508142415 14 215 16.1 25.7 0.00 0.00 0.00 51 1014.5
20260508141915 14 215 17.7 22.5 0.00 0.00 0.00 51 1014.6
20260508140914 13 222 17.7 27.4 0.00 0.00 0.00 51 1014.8
20260508140413 13 219 17.7 24.1 0.00 0.00 0.00 51 1014.7
20260508135913 13 255 14.5 29.0 0.00 0.00 0.00 52 1014.7
20260508135413 13 240 16.1 24.1 0.00 0.00 0.00 52 1014.7
20260508134912 13 231 14.5 33.8 0.00 0.00 0.00 52 1014.8
20260508134411 13 235 19.3 30.6 0.00 0.00 0.00 51 1014.8
20260508133909 13 242 9.7 27.4 0.00 0.00 0.00 52 1014.8
20260508133408 13 250 16.1 20.9 0.00 0.00 0.00 51 1014.8
20260508132908 13 252 11.3 32.2 0.00 0.00 0.00 52 1014.8
20260508132407 13 239 11.3 29.0 0.00 0.00 0.00 52 1014.7
20260508131406 13 222 8.0 25.7 0.00 0.00 0.00 52 1014.7
20260508130906 12 246 8.0 25.7 0.00 0.00 0.00 53 1014.7
20260508130404 12 238 14.5 24.1 0.00 0.00 0.00 51 1014.7
20260508125904 12 205 14.5 14.5 0.00 0.00 0.00 51 1014.7
20260508125403 12 203 4.8 17.7 0.00 0.00 0.00 53 1014.7
20260508124903 12 214 11.3 19.3 0.00 0.00 0.00 53 1014.7
20260508124402 12 201 4.8 12.9 0.00 0.00 0.00 55 1014.7
20260508123901 12 195 4.8 12.9 0.00 0.00 0.00 56 1014.6
20260508123401 12 221 4.8 11.3 0.00 0.00 0.00 58 1014.6
20260508122901 11 176 1.6 11.3 0.00 0.00 0.00 58 1014.6
20260508122400 11 203 3.2 9.7 0.00 0.00 0.00 59 1014.7
20260508121859 11 214 4.8 8.0 0.00 0.00 0.00 59 1014.7
20260508121359 11 187 4.8 8.0 0.00 0.00 0.00 61 1014.8
20260508120358 10 150 0.0 4.8 0.00 0.00 0.00 62 1014.6
20260508115857 10 167 1.6 11.3 0.00 0.00 0.00 62 1014.6
20260508115357 10 210 4.8 11.3 0.00 0.00 0.00 62 1014.5
20260508113855 10 187 6.4 8.0 0.00 0.00 0.00 63 1014.4
20260508113355 10 177 0.0 6.4 0.00 0.00 0.00 64 1014.3
20260508112854 10 201 1.6 8.0 0.00 0.00 0.00 64 1014.3
20260508111853 10 200 4.8 9.7 0.00 0.00 0.00 64 1014.3
20260508111353 10 150 3.2 4.8 0.00 0.00 0.00 64 1014.1
20260508110852 10 170 1.6 6.4 0.00 0.00 0.00 64 1014.1
20260508105850 9 166 4.8 11.3 0.00 0.00 0.00 64 1014.1
20260508105349 9 200 3.2 8.0 0.00 0.00 0.00 65 1014.0
20260508104849 9 214 1.6 9.7 0.00 0.00 0.00 65 1014.0
20260508104347 9 138 3.2 9.7 0.00 0.00 0.00 65 1013.8
20260508103847 9 218 6.4 8.0 0.00 0.00 0.00 65 1014.0
20260508103346 9 214 3.2 9.7 0.00 0.00 0.00 65 1014.0
20260508102846 9 176 4.8 8.0 0.00 0.00 0.00 66 1014.1
20260508102345 9 183 3.2 8.0 0.00 0.00 0.00 66 1014.1
20260508101845 9 127 4.8 6.4 0.00 0.00 0.00 66 1014.1
20260508101344 9 194 1.6 8.0 0.00 0.00 0.00 67 1014.2
20260508100844 8 188 4.8 6.4 0.00 0.00 0.00 67 1014.1
20260508100343 8 152 1.6 8.0 0.00 0.00 0.00 67 1014.1
20260508095843 8 177 3.2 8.0 0.00 0.00 0.00 67 1014.1
20260508095342 8 174 4.8 8.0 0.00 0.00 0.00 67 1014.1
20260508094842 8 169 4.8 8.0 0.00 0.00 0.00 67 1014.2
20260508094341 8 159 4.8 6.4 0.00 0.00 0.00 68 1014.3
20260508093841 8 181 4.8 8.0 0.00 0.00 0.00 68 1014.2
20260508093340 8 165 6.4 8.0 0.00 0.00 0.00 69 1014.2
20260508092840 8 160 3.2 3.2 0.00 0.00 0.00 69 1014.3
20260508092339 8 162 0.0 1.6 0.00 0.00 0.00 69 1014.2
20260508091838 8 162 0.0 3.2 0.00 0.00 0.00 69 1014.3
20260508091425 8 153 0.0 4.8 0.00 0.00 0.00 69 1014.3
20260508091337 8 153 0.0 4.8 0.00 0.00 0.00 69 1014.3
20260508090836 8 127 1.6 0.0 0.00 0.00 0.00 69 1014.2
20260508090336 8 103 0.0 1.6 0.00 0.00 0.00 70 1014.2
20260508085835 8 103 1.6 0.0 0.00 0.00 0.00 70 1014.3
20260508085334 8 257 0.0 0.0 0.00 0.00 0.00 70 1014.1
20260508084333 8 257 0.0 0.0 0.00 0.00 0.00 69 1014.2
20260508083832 8 257 0.0 0.0 0.00 0.00 0.00 68 1014.1
20260508083332 8 257 0.0 6.4 0.00 0.00 0.00 68 1014.2
20260508082831 8 257 0.0 6.4 0.00 0.00 0.00 68 1014.2
20260508082330 8 214 3.2 9.7 0.00 0.00 0.00 69 1014.2
20260508081829 7 240 1.6 0.0 0.00 0.00 0.00 70 1014.2
20260508081329 7 232 0.0 0.0 0.00 0.00 0.00 70 1014.2
20260508080828 8 232 0.0 0.0 0.00 0.00 0.00 69 1014.2
20260508080328 8 232 0.0 0.0 0.00 0.00 0.00 68 1014.1
20260508075827 8 232 0.0 0.0 0.00 0.00 0.00 66 1014.2
20260508074826 8 207 0.0 4.8 0.00 0.00 0.00 65 1014.0
20260508074325 8 197 1.6 6.4 0.00 0.00 0.00 65 1014.1
20260508073825 8 240 1.6 3.2 0.00 0.00 0.00 66 1014.1
20260508073324 8 233 0.0 0.0 0.00 0.00 0.00 66 1014.1
20260508072824 8 207 0.0 0.0 0.00 0.00 0.00 66 1014.0
20260508072323 8 207 0.0 3.2 0.00 0.00 0.00 65 1014.1
20260508071823 8 207 0.0 3.2 0.00 0.00 0.00 64 1014.1
20260508071322 8 201 0.0 14.5 0.00 0.00 0.00 64 1014.2
20260508070822 8 253 1.6 0.0 0.00 0.00 0.00 65 1014.3
20260508070321 8 239 0.0 6.4 0.00 0.00 0.00 65 1014.3
20260508065821 8 215 3.2 4.8 0.00 0.00 0.00 65 1014.3
20260508065320 8 264 0.0 6.4 0.00 0.00 0.00 66 1014.4
20260508064820 8 86 0.0 6.4 0.00 0.00 0.00 67 1014.3
20260508064319 8 79 0.0 1.6 0.00 0.00 0.00 68 1014.4
20260508063819 8 184 0.0 0.0 0.00 0.00 0.00 69 1014.5
20260508063318 8 184 0.0 0.0 0.00 0.00 0.00 69 1014.6
20260508062818 8 184 0.0 0.0 0.00 0.00 0.00 69 1014.6
20260508062317 8 184 0.0 0.0 0.00 0.00 0.00 69 1014.7
20260508061817 8 184 0.0 0.0 0.00 0.00 0.00 68 1014.7
20260508061316 8 184 0.0 0.0 0.00 0.00 0.00 68 1014.7
20260508060815 8 184 0.0 0.0 0.00 0.00 0.00 68 1014.7
20260508060315 8 184 0.0 0.0 0.00 0.00 0.00 68 1014.8
20260508055815 8 184 0.0 0.0 0.00 0.00 0.00 69 1014.7
20260508055314 8 184 0.0 0.0 0.00 0.00 0.00 68 1014.7
20260508054813 8 184 0.0 0.0 0.00 0.00 0.00 67 1014.6
20260508054313 8 184 0.0 0.0 0.00 0.00 0.00 66 1014.7
20260508053813 8 184 0.0 0.0 0.00 0.00 0.00 65 1014.7
20260508053312 8 184 0.0 1.6 0.00 0.00 0.00 63 1014.8
20260508052811 9 162 0.0 0.0 0.00 0.00 0.00 63 1014.8
20260508052311 9 162 0.0 0.0 0.00 0.00 0.00 62 1014.8
20260508051810 10 162 0.0 0.0 0.00 0.00 0.00 60 1014.7
20260508051409 10 162 0.0 0.0 0.00 0.00 0.00 61 1014.7
20260508051310 10 162 0.0 0.0 0.00 0.00 0.00 61 1014.7
20260508050809 10 162 0.0 3.2 0.00 0.00 0.00 58 1014.6
20260508045808 10 188 0.0 8.0 0.00 0.00 0.00 56 1014.6
20260508045308 10 184 4.8 8.0 0.00 0.56 0.00 56 1014.7
20260508044807 10 239 3.2 0.0 0.00 0.56 0.00 56 1014.7
20260508044307 10 219 0.0 0.0 0.00 0.56 0.00 56 1014.6
20260508043806 10 219 0.0 4.8 0.00 0.56 0.00 56 1014.6
20260508043306 10 219 0.0 4.8 0.00 0.56 0.00 56 1014.5
20260508042805 11 214 3.2 6.4 0.00 0.56 0.00 55 1014.5
20260508042307 11 226 0.0 0.0 0.00 0.56 0.00 55 1014.5
20260508041303 11 226 0.0 8.0 0.00 0.56 0.00 54 1014.5
20260508040302 11 205 8.0 9.7 0.00 0.56 0.00 53 1014.5
20260508035803 11 203 0.0 11.3 0.00 0.56 0.00 52 1014.4
20260508035301 11 228 6.4 11.3 0.00 0.56 0.00 52 1014.3
20260508034300 11 191 4.8 9.7 0.00 0.56 0.00 52 1014.4
20260508033800 11 225 0.0 11.3 0.00 0.56 0.00 51 1014.5
20260508033259 11 205 6.4 9.7 0.00 0.56 0.00 51 1014.5
20260508032759 11 222 3.2 6.4 0.00 0.56 0.00 51 1014.5
20260508032258 11 211 0.0 9.7 0.00 0.56 0.00 50 1014.4
20260508031758 11 179 1.6 1.6 0.00 0.56 0.00 50 1014.3
20260508031257 12 259 0.0 4.8 0.00 0.56 0.00 50 1014.4
20260508030757 12 290 0.0 6.4 0.00 0.56 0.00 50 1014.5
20260508030256 12 186 0.0 4.8 0.00 0.56 0.00 50 1014.4
20260508025756 12 198 0.0 4.8 0.00 0.56 0.00 50 1014.3
20260508025255 12 198 0.0 8.0 0.00 0.56 0.00 50 1014.2